owner,sensor,date,latitude,longitude,vertical_datum,sea_water_temperature,qcFlag 
NDBC,ioos:station:NOAA.NDBC:FWYF1:1,2017-01-01T01:00:00Z,25.5910,-80.0970,0.0,25.1,2 
NDBC,ioos:station:NOAA.NDBC:FWYF1:1,2017-01-01T02:00:00Z,25.5910,-80.0970,0.0,25.1,2 
NDBC,ioos:station:NOAA.NDBC:FWYF1:1,2017-01-01T03:00:00Z,25.5910,-80.0970,0.0,25.0,2 
NDBC,ioos:station:NOAA.NDBC:FWYF1:1,2017-01-01T04:00:00Z,25.5910,-80.0970,0.0,25.0,2 
NDBC,ioos:station:NOAA.NDBC:FWYF1:1,2017-01-01T05:00:00Z,25.5910,-80.0970,0.0,25.0,2 
NDBC,ioos:station:NOAA.NDBC:FWYF1:1,2017-01-01T06:00:00Z,25.5910,-80.0970,0.0,24.9,2 
NDBC,ioos:station:NOAA.NDBC:FWYF1:1,2017-01-01T07:00:00Z,25.5910,-80.0970,0.0,24.8,2 
NDBC,ioos:station:NOAA.NDBC:FWYF1:1,2017-01-01T08:00:00Z,25.5910,-80.0970,0.0,24.7,2 
NDBC,ioos:station:NOAA.NDBC:FWYF1:1,2017-01-01T09:00:00Z,25.5910,-80.0970,0.0,24.7,2 
NDBC,ioos:station:NOAA.NDBC:FWYF1:1,2017-01-01T10:00:00Z,25.5910,-80.0970,0.0,24.8,2 
NDBC,ioos:station:NOAA.NDBC:FWYF1:1,2017-01-01T13:00:00Z,25.5910,-80.0970,0.0,24.8,2 
NDBC,ioos:station:NOAA.NDBC:FWYF1:1,2017-01-01T14:00:00Z,25.5910,-80.0970,0.0,25.0,2 
NDBC,ioos:station:NOAA.NDBC:FWYF1:1,2017-01-01T23:00:00Z,25.5910,-80.0970,0.0,25.2,2 
NDBC,ioos:station:NOAA.NDBC:FWYF1:1,2017-01-02T02:00:00Z,25.5910,-80.0970,0.0,25.0,2 
NDBC,ioos:station:NOAA.NDBC:FWYF1:1,2017-01-02T13:00:00Z,25.5910,-80.0970,0.0,25.0,2 
NDBC,ioos:station:NOAA.NDBC:FWYF1:1,2017-01-02T14:00:00Z,25.5910,-80.0970,0.0,25.0,2 
NDBC,ioos:station:NOAA.NDBC:FWYF1:1,2017-01-02T18:00:00Z,25.5910,-80.0970,0.0,25.2,2 
NDBC,ioos:station:NOAA.NDBC:FWYF1:1,2017-01-02T23:00:00Z,25.5910,-80.0970,0.0,25.3,2 
NDBC,ioos:station:NOAA.NDBC:FWYF1:1,2017-01-03T00:00:00Z,25.5910,-80.0970,0.0,25.2,2 
NDBC,ioos:station:NOAA.NDBC:FWYF1:1,2017-01-03T01:00:00Z,25.5910,-80.0970,0.0,25.2,2 
NDBC,ioos:station:NOAA.NDBC:FWYF1:1,2017-01-03T02:00:00Z,25.5910,-80.0970,0.0,25.2,2 
NDBC,ioos:station:NOAA.NDBC:FWYF1:1,2017-01-03T03:00:00Z,25.5910,-80.0970,0.0,25.1,2 
NDBC,ioos:station:NOAA.NDBC:FWYF1:1,2017-01-03T04:00:00Z,25.5910,-80.0970,0.0,25.1,2 
NDBC,ioos:station:NOAA.NDBC:FWYF1:1,2017-01-03T05:00:00Z,25.5910,-80.0970,0.0,25.0,2 
NDBC,ioos:station:NOAA.NDBC:FWYF1:1,2017-01-03T06:00:00Z,25.5910,-80.0970,0.0,25.0,2 
NDBC,ioos:station:NOAA.NDBC:FWYF1:1,2017-01-03T13:00:00Z,25.5910,-80.0970,0.0,24.8,2 
NDBC,ioos:station:NOAA.NDBC:FWYF1:1,2017-01-03T14:00:00Z,25.5910,-80.0970,0.0,24.8,2 
NDBC,ioos:station:NOAA.NDBC:FWYF1:1,2017-01-03T15:00:00Z,25.5910,-80.0970,0.0,24.8,2 
NDBC,ioos:station:NOAA.NDBC:FWYF1:1,2017-01-03T17:00:00Z,25.5910,-80.0970,0.0,24.9,2 
NDBC,ioos:station:NOAA.NDBC:FWYF1:1,2017-01-03T18:00:00Z,25.5910,-80.0970,0.0,25.0,2 
NDBC,ioos:station:NOAA.NDBC:FWYF1:1,2017-01-04T01:00:00Z,25.5910,-80.0970,0.0,24.8,2 
NDBC,ioos:station:NOAA.NDBC:FWYF1:1,2017-01-04T02:00:00Z,25.5910,-80.0970,0.0,24.9,2 
NDBC,ioos:station:NOAA.NDBC:FWYF1:1,2017-01-04T12:00:00Z,25.5910,-80.0970,0.0,24.1,2 
NDBC,ioos:station:NOAA.NDBC:FWYF1:1,2017-01-04T14:00:00Z,25.5910,-80.0970,0.0,24.7,2 
NDBC,ioos:station:NOAA.NDBC:FWYF1:1,2017-01-05T01:00:00Z,25.5910,-80.0970,0.0,24.4,2 
NDBC,ioos:station:NOAA.NDBC:FWYF1:1,2017-01-05T02:00:00Z,25.5910,-80.0970,0.0,24.5,2 
NDBC,ioos:station:NOAA.NDBC:FWYF1:1,2017-01-05T13:00:00Z,25.5910,-80.0970,0.0,23.7,2 
NDBC,ioos:station:NOAA.NDBC:FWYF1:1,2017-01-05T14:00:00Z,25.5910,-80.0970,0.0,23.7,2 
NDBC,ioos:station:NOAA.NDBC:FWYF1:1,2017-01-06T01:00:00Z,25.5910,-80.0970,0.0,23.8,2 
NDBC,ioos:station:NOAA.NDBC:FWYF1:1,2017-01-06T02:00:00Z,25.5910,-80.0970,0.0,23.8,2 
NDBC,ioos:station:NOAA.NDBC:FWYF1:1,2017-01-06T03:00:00Z,25.5910,-80.0970,0.0,23.8,2 
NDBC,ioos:station:NOAA.NDBC:FWYF1:1,2017-01-06T04:00:00Z,25.5910,-80.0970,0.0,23.7,2 
NDBC,ioos:station:NOAA.NDBC:FWYF1:1,2017-01-06T13:00:00Z,25.5910,-80.0970,0.0,23.6,2 
NDBC,ioos:station:NOAA.NDBC:FWYF1:1,2017-01-06T14:00:00Z,25.5910,-80.0970,0.0,23.5,2 
NDBC,ioos:station:NOAA.NDBC:FWYF1:1,2017-01-06T23:00:00Z,25.5910,-80.0970,0.0,24.3,2 
NDBC,ioos:station:NOAA.NDBC:FWYF1:1,2017-01-07T02:00:00Z,25.5910,-80.0970,0.0,24.2,2 
NDBC,ioos:station:NOAA.NDBC:FWYF1:1,2017-01-07T03:00:00Z,25.5910,-80.0970,0.0,24.1,2 
NDBC,ioos:station:NOAA.NDBC:FWYF1:1,2017-01-07T04:00:00Z,25.5910,-80.0970,0.0,24.1,2 
NDBC,ioos:station:NOAA.NDBC:FWYF1:1,2017-01-07T05:00:00Z,25.5910,-80.0970,0.0,24.3,2 
NDBC,ioos:station:NOAA.NDBC:FWYF1:1,2017-01-07T06:00:00Z,25.5910,-80.0970,0.0,24.4,2 
NDBC,ioos:station:NOAA.NDBC:FWYF1:1,2017-01-07T07:00:00Z,25.5910,-80.0970,0.0,24.4,2 
NDBC,ioos:station:NOAA.NDBC:FWYF1:1,2017-01-07T08:00:00Z,25.5910,-80.0970,0.0,24.4,2 
NDBC,ioos:station:NOAA.NDBC:FWYF1:1,2017-01-07T09:00:00Z,25.5910,-80.0970,0.0,24.4,2 
NDBC,ioos:station:NOAA.NDBC:FWYF1:1,2017-01-07T10:00:00Z,25.5910,-80.0970,0.0,24.4,2 
NDBC,ioos:station:NOAA.NDBC:FWYF1:1,2017-01-07T11:00:00Z,25.5910,-80.0970,0.0,24.4,2 
NDBC,ioos:station:NOAA.NDBC:FWYF1:1,2017-01-07T12:00:00Z,25.5910,-80.0970,0.0,24.4,2 
NDBC,ioos:station:NOAA.NDBC:FWYF1:1,2017-01-07T13:00:00Z,25.5910,-80.0970,0.0,24.4,2 
NDBC,ioos:station:NOAA.NDBC:FWYF1:1,2017-01-07T14:00:00Z,25.5910,-80.0970,0.0,24.3,2 
NDBC,ioos:station:NOAA.NDBC:FWYF1:1,2017-01-07T15:00:00Z,25.5910,-80.0970,0.0,24.4,2 
NDBC,ioos:station:NOAA.NDBC:FWYF1:1,2017-01-08T01:00:00Z,25.5910,-80.0970,0.0,24.3,2 
NDBC,ioos:station:NOAA.NDBC:FWYF1:1,2017-01-08T02:00:00Z,25.5910,-80.0970,0.0,24.2,2 
NDBC,ioos:station:NOAA.NDBC:FWYF1:1,2017-01-08T03:00:00Z,25.5910,-80.0970,0.0,24.1,2 
NDBC,ioos:station:NOAA.NDBC:FWYF1:1,2017-01-08T04:00:00Z,25.5910,-80.0970,0.0,24.1,2 
NDBC,ioos:station:NOAA.NDBC:FWYF1:1,2017-01-08T05:00:00Z,25.5910,-80.0970,0.0,23.9,2 
NDBC,ioos:station:NOAA.NDBC:FWYF1:1,2017-01-08T06:00:00Z,25.5910,-80.0970,0.0,23.9,2 
NDBC,ioos:station:NOAA.NDBC:FWYF1:1,2017-01-08T07:00:00Z,25.5910,-80.0970,0.0,23.9,2 
NDBC,ioos:station:NOAA.NDBC:FWYF1:1,2017-01-08T08:00:00Z,25.5910,-80.0970,0.0,23.8,2 
NDBC,ioos:station:NOAA.NDBC:FWYF1:1,2017-01-08T09:00:00Z,25.5910,-80.0970,0.0,23.8,2 
NDBC,ioos:station:NOAA.NDBC:FWYF1:1,2017-01-08T10:00:00Z,25.5910,-80.0970,0.0,23.8,2 
NDBC,ioos:station:NOAA.NDBC:FWYF1:1,2017-01-08T11:00:00Z,25.5910,-80.0970,0.0,23.8,2 
NDBC,ioos:station:NOAA.NDBC:FWYF1:1,2017-01-08T14:00:00Z,25.5910,-80.0970,0.0,23.2,2 
NDBC,ioos:station:NOAA.NDBC:FWYF1:1,2017-01-08T15:00:00Z,25.5910,-80.0970,0.0,23.2,2 
NDBC,ioos:station:NOAA.NDBC:FWYF1:1,2017-01-08T16:00:00Z,25.5910,-80.0970,0.0,23.1,2 
NDBC,ioos:station:NOAA.NDBC:FWYF1:1,2017-01-08T17:00:00Z,25.5910,-80.0970,0.0,23.1,2 
NDBC,ioos:station:NOAA.NDBC:FWYF1:1,2017-01-08T18:00:00Z,25.5910,-80.0970,0.0,23.5,2 
NDBC,ioos:station:NOAA.NDBC:FWYF1:1,2017-01-08T19:00:00Z,25.5910,-80.0970,0.0,23.7,2 
NDBC,ioos:station:NOAA.NDBC:FWYF1:1,2017-01-08T20:00:00Z,25.5910,-80.0970,0.0,24.4,2 
NDBC,ioos:station:NOAA.NDBC:FWYF1:1,2017-01-08T21:00:00Z,25.5910,-80.0970,0.0,24.6,2 
NDBC,ioos:station:NOAA.NDBC:FWYF1:1,2017-01-08T22:00:00Z,25.5910,-80.0970,0.0,24.8,2 
NDBC,ioos:station:NOAA.NDBC:FWYF1:1,2017-01-08T23:00:00Z,25.5910,-80.0970,0.0,24.9,2 
NDBC,ioos:station:NOAA.NDBC:FWYF1:1,2017-01-09T01:00:00Z,25.5910,-80.0970,0.0,24.6,2 
NDBC,ioos:station:NOAA.NDBC:FWYF1:1,2017-01-09T03:00:00Z,25.5910,-80.0970,0.0,23.8,2 
NDBC,ioos:station:NOAA.NDBC:FWYF1:1,2017-01-09T04:00:00Z,25.5910,-80.0970,0.0,23.4,2 
NDBC,ioos:station:NOAA.NDBC:FWYF1:1,2017-01-09T05:00:00Z,25.5910,-80.0970,0.0,23.1,2 
NDBC,ioos:station:NOAA.NDBC:FWYF1:1,2017-01-09T06:00:00Z,25.5910,-80.0970,0.0,23.0,2 
NDBC,ioos:station:NOAA.NDBC:FWYF1:1,2017-01-09T07:00:00Z,25.5910,-80.0970,0.0,24.8,2 
NDBC,ioos:station:NOAA.NDBC:FWYF1:1,2017-01-09T08:00:00Z,25.5910,-80.0970,0.0,24.9,2 
NDBC,ioos:station:NOAA.NDBC:FWYF1:1,2017-01-09T09:00:00Z,25.5910,-80.0970,0.0,24.9,2 
NDBC,ioos:station:NOAA.NDBC:FWYF1:1,2017-01-09T10:00:00Z,25.5910,-80.0970,0.0,24.9,2 
NDBC,ioos:station:NOAA.NDBC:FWYF1:1,2017-01-09T11:00:00Z,25.5910,-80.0970,0.0,24.9,2 
NDBC,ioos:station:NOAA.NDBC:FWYF1:1,2017-01-09T12:00:00Z,25.5910,-80.0970,0.0,24.8,2 
NDBC,ioos:station:NOAA.NDBC:FWYF1:1,2017-01-09T13:00:00Z,25.5910,-80.0970,0.0,24.7,2 
NDBC,ioos:station:NOAA.NDBC:FWYF1:1,2017-01-09T14:00:00Z,25.5910,-80.0970,0.0,24.5,2 
NDBC,ioos:station:NOAA.NDBC:FWYF1:1,2017-01-09T18:00:00Z,25.5910,-80.0970,0.0,23.5,2 
NDBC,ioos:station:NOAA.NDBC:FWYF1:1,2017-01-09T19:00:00Z,25.5910,-80.0970,0.0,23.9,2 
NDBC,ioos:station:NOAA.NDBC:FWYF1:1,2017-01-09T20:00:00Z,25.5910,-80.0970,0.0,24.5,2 
NDBC,ioos:station:NOAA.NDBC:FWYF1:1,2017-01-09T21:00:00Z,25.5910,-80.0970,0.0,24.7,2 
NDBC,ioos:station:NOAA.NDBC:FWYF1:1,2017-01-10T01:00:00Z,25.5910,-80.0970,0.0,24.3,2 
NDBC,ioos:station:NOAA.NDBC:FWYF1:1,2017-01-10T02:00:00Z,25.5910,-80.0970,0.0,24.2,2 
NDBC,ioos:station:NOAA.NDBC:FWYF1:1,2017-01-10T13:00:00Z,25.5910,-80.0970,0.0,24.3,2 
NDBC,ioos:station:NOAA.NDBC:FWYF1:1,2017-01-10T14:00:00Z,25.5910,-80.0970,0.0,24.2,2 
NDBC,ioos:station:NOAA.NDBC:FWYF1:1,2017-01-10T15:00:00Z,25.5910,-80.0970,0.0,24.1,2 
NDBC,ioos:station:NOAA.NDBC:FWYF1:1,2017-01-10T16:00:00Z,25.5910,-80.0970,0.0,24.1,2 
NDBC,ioos:station:NOAA.NDBC:FWYF1:1,2017-01-11T02:00:00Z,25.5910,-80.0970,0.0,24.8,2 
NDBC,ioos:station:NOAA.NDBC:FWYF1:1,2017-01-11T13:00:00Z,25.5910,-80.0970,0.0,24.7,2 
NDBC,ioos:station:NOAA.NDBC:FWYF1:1,2017-01-11T14:00:00Z,25.5910,-80.0970,0.0,24.7,2 
NDBC,ioos:station:NOAA.NDBC:FWYF1:1,2017-01-11T16:00:00Z,25.5910,-80.0970,0.0,24.7,2 
NDBC,ioos:station:NOAA.NDBC:FWYF1:1,2017-01-11T17:00:00Z,25.5910,-80.0970,0.0,24.7,2 
NDBC,ioos:station:NOAA.NDBC:FWYF1:1,2017-01-11T18:00:00Z,25.5910,-80.0970,0.0,24.8,2 
NDBC,ioos:station:NOAA.NDBC:FWYF1:1,2017-01-11T19:00:00Z,25.5910,-80.0970,0.0,24.7,2 
NDBC,ioos:station:NOAA.NDBC:FWYF1:1,2017-01-11T20:00:00Z,25.5910,-80.0970,0.0,24.7,2 
NDBC,ioos:station:NOAA.NDBC:FWYF1:1,2017-01-11T21:00:00Z,25.5910,-80.0970,0.0,24.7,2 
NDBC,ioos:station:NOAA.NDBC:FWYF1:1,2017-01-12T01:00:00Z,25.5910,-80.0970,0.0,24.9,2 
NDBC,ioos:station:NOAA.NDBC:FWYF1:1,2017-01-12T02:00:00Z,25.5910,-80.0970,0.0,24.8,2 
NDBC,ioos:station:NOAA.NDBC:FWYF1:1,2017-01-12T06:00:00Z,25.5910,-80.0970,0.0,24.8,2 
NDBC,ioos:station:NOAA.NDBC:FWYF1:1,2017-01-12T11:00:00Z,25.5910,-80.0970,0.0,24.6,2 
NDBC,ioos:station:NOAA.NDBC:FWYF1:1,2017-01-12T12:00:00Z,25.5910,-80.0970,0.0,24.8,2 
NDBC,ioos:station:NOAA.NDBC:FWYF1:1,2017-01-12T13:00:00Z,25.5910,-80.0970,0.0,24.9,2 
NDBC,ioos:station:NOAA.NDBC:FWYF1:1,2017-01-12T14:00:00Z,25.5910,-80.0970,0.0,24.9,2 
NDBC,ioos:station:NOAA.NDBC:FWYF1:1,2017-01-13T01:00:00Z,25.5910,-80.0970,0.0,24.9,2 
NDBC,ioos:station:NOAA.NDBC:FWYF1:1,2017-01-13T09:00:00Z,25.5910,-80.0970,0.0,24.7,2 
NDBC,ioos:station:NOAA.NDBC:FWYF1:1,2017-01-17T13:00:00Z,25.5910,-80.0970,0.0,24.0,2 
NDBC,ioos:station:NOAA.NDBC:FWYF1:1,2017-01-17T19:00:00Z,25.5910,-80.0970,0.0,24.4,2 
NDBC,ioos:station:NOAA.NDBC:FWYF1:1,2017-01-17T20:00:00Z,25.5910,-80.0970,0.0,24.3,2 
NDBC,ioos:station:NOAA.NDBC:FWYF1:1,2017-01-17T21:00:00Z,25.5910,-80.0970,0.0,24.3,2 
NDBC,ioos:station:NOAA.NDBC:FWYF1:1,2017-01-17T22:00:00Z,25.5910,-80.0970,0.0,24.2,2 
NDBC,ioos:station:NOAA.NDBC:FWYF1:1,2017-01-18T00:00:00Z,25.5910,-80.0970,0.0,23.9,2 
NDBC,ioos:station:NOAA.NDBC:FWYF1:1,2017-01-18T01:00:00Z,25.5910,-80.0970,0.0,24.2,2 
NDBC,ioos:station:NOAA.NDBC:FWYF1:1,2017-01-18T02:00:00Z,25.5910,-80.0970,0.0,24.0,2 
NDBC,ioos:station:NOAA.NDBC:FWYF1:1,2017-01-18T03:00:00Z,25.5910,-80.0970,0.0,24.0,2 
NDBC,ioos:station:NOAA.NDBC:FWYF1:1,2017-01-18T04:00:00Z,25.5910,-80.0970,0.0,23.8,2 
NDBC,ioos:station:NOAA.NDBC:FWYF1:1,2017-01-18T05:00:00Z,25.5910,-80.0970,0.0,23.9,2 
NDBC,ioos:station:NOAA.NDBC:FWYF1:1,2017-01-18T06:00:00Z,25.5910,-80.0970,0.0,23.9,2 
NDBC,ioos:station:NOAA.NDBC:FWYF1:1,2017-01-18T07:00:00Z,25.5910,-80.0970,0.0,23.7,2 
NDBC,ioos:station:NOAA.NDBC:FWYF1:1,2017-01-18T08:00:00Z,25.5910,-80.0970,0.0,23.8,2 
NDBC,ioos:station:NOAA.NDBC:FWYF1:1,2017-01-18T09:00:00Z,25.5910,-80.0970,0.0,23.7,2 
NDBC,ioos:station:NOAA.NDBC:FWYF1:1,2017-01-18T10:00:00Z,25.5910,-80.0970,0.0,23.5,2 
NDBC,ioos:station:NOAA.NDBC:FWYF1:1,2017-01-18T11:00:00Z,25.5910,-80.0970,0.0,23.0,2 
NDBC,ioos:station:NOAA.NDBC:FWYF1:1,2017-01-18T12:00:00Z,25.5910,-80.0970,0.0,22.9,2 
NDBC,ioos:station:NOAA.NDBC:FWYF1:1,2017-01-18T13:00:00Z,25.5910,-80.0970,0.0,23.4,2 
NDBC,ioos:station:NOAA.NDBC:FWYF1:1,2017-01-18T14:00:00Z,25.5910,-80.0970,0.0,23.7,2 
NDBC,ioos:station:NOAA.NDBC:FWYF1:1,2017-01-18T15:00:00Z,25.5910,-80.0970,0.0,23.1,2 
NDBC,ioos:station:NOAA.NDBC:FWYF1:1,2017-01-18T16:00:00Z,25.5910,-80.0970,0.0,24.3,2 
NDBC,ioos:station:NOAA.NDBC:FWYF1:1,2017-01-19T01:00:00Z,25.5910,-80.0970,0.0,23.0,2 
NDBC,ioos:station:NOAA.NDBC:FWYF1:1,2017-01-19T02:00:00Z,25.5910,-80.0970,0.0,23.2,2 
NDBC,ioos:station:NOAA.NDBC:FWYF1:1,2017-01-19T12:00:00Z,25.5910,-80.0970,0.0,23.8,2 
NDBC,ioos:station:NOAA.NDBC:FWYF1:1,2017-01-19T13:00:00Z,25.5910,-80.0970,0.0,23.6,2 
NDBC,ioos:station:NOAA.NDBC:FWYF1:1,2017-01-19T14:00:00Z,25.5910,-80.0970,0.0,23.4,2 
NDBC,ioos:station:NOAA.NDBC:FWYF1:1,2017-01-19T15:00:00Z,25.5910,-80.0970,0.0,23.6,2 
NDBC,ioos:station:NOAA.NDBC:FWYF1:1,2017-01-19T16:00:00Z,25.5910,-80.0970,0.0,24.0,2 
NDBC,ioos:station:NOAA.NDBC:FWYF1:1,2017-01-19T17:00:00Z,25.5910,-80.0970,0.0,24.3,2 
NDBC,ioos:station:NOAA.NDBC:FWYF1:1,2017-01-19T18:00:00Z,25.5910,-80.0970,0.0,24.3,2 
NDBC,ioos:station:NOAA.NDBC:FWYF1:1,2017-01-19T19:00:00Z,25.5910,-80.0970,0.0,24.4,2 
NDBC,ioos:station:NOAA.NDBC:FWYF1:1,2017-01-19T20:00:00Z,25.5910,-80.0970,0.0,24.2,2 
NDBC,ioos:station:NOAA.NDBC:FWYF1:1,2017-01-19T21:00:00Z,25.5910,-80.0970,0.0,24.1,2 
NDBC,ioos:station:NOAA.NDBC:FWYF1:1,2017-01-20T01:00:00Z,25.5910,-80.0970,0.0,23.6,2 
NDBC,ioos:station:NOAA.NDBC:FWYF1:1,2017-01-20T08:00:00Z,25.5910,-80.0970,0.0,24.1,2 
NDBC,ioos:station:NOAA.NDBC:FWYF1:1,2017-01-20T11:00:00Z,25.5910,-80.0970,0.0,24.0,2 
NDBC,ioos:station:NOAA.NDBC:FWYF1:1,2017-01-20T12:00:00Z,25.5910,-80.0970,0.0,24.0,2 
NDBC,ioos:station:NOAA.NDBC:FWYF1:1,2017-01-20T13:00:00Z,25.5910,-80.0970,0.0,24.0,2 
NDBC,ioos:station:NOAA.NDBC:FWYF1:1,2017-01-20T14:00:00Z,25.5910,-80.0970,0.0,24.0,2 
NDBC,ioos:station:NOAA.NDBC:FWYF1:1,2017-01-20T15:00:00Z,25.5910,-80.0970,0.0,24.1,2 
NDBC,ioos:station:NOAA.NDBC:FWYF1:1,2017-01-20T16:00:00Z,25.5910,-80.0970,0.0,24.2,2 
NDBC,ioos:station:NOAA.NDBC:FWYF1:1,2017-01-20T21:00:00Z,25.5910,-80.0970,0.0,24.5,2 
NDBC,ioos:station:NOAA.NDBC:FWYF1:1,2017-01-20T23:00:00Z,25.5910,-80.0970,0.0,24.3,2 
NDBC,ioos:station:NOAA.NDBC:FWYF1:1,2017-01-21T02:00:00Z,25.5910,-80.0970,0.0,24.3,2 
NDBC,ioos:station:NOAA.NDBC:FWYF1:1,2017-01-21T05:00:00Z,25.5910,-80.0970,0.0,24.3,2 
NDBC,ioos:station:NOAA.NDBC:FWYF1:1,2017-01-21T06:00:00Z,25.5910,-80.0970,0.0,24.3,2 
NDBC,ioos:station:NOAA.NDBC:FWYF1:1,2017-01-21T07:00:00Z,25.5910,-80.0970,0.0,24.2,2 
NDBC,ioos:station:NOAA.NDBC:FWYF1:1,2017-01-21T08:00:00Z,25.5910,-80.0970,0.0,24.2,2 
NDBC,ioos:station:NOAA.NDBC:FWYF1:1,2017-01-21T09:00:00Z,25.5910,-80.0970,0.0,24.2,2 
NDBC,ioos:station:NOAA.NDBC:FWYF1:1,2017-01-21T10:00:00Z,25.5910,-80.0970,0.0,24.2,2 
NDBC,ioos:station:NOAA.NDBC:FWYF1:1,2017-01-21T19:00:00Z,25.5910,-80.0970,0.0,24.3,2 
NDBC,ioos:station:NOAA.NDBC:FWYF1:1,2017-01-21T21:00:00Z,25.5910,-80.0970,0.0,24.3,2 
NDBC,ioos:station:NOAA.NDBC:FWYF1:1,2017-01-21T23:00:00Z,25.5910,-80.0970,0.0,24.2,2 
NDBC,ioos:station:NOAA.NDBC:FWYF1:1,2017-01-22T13:00:00Z,25.5910,-80.0970,0.0,24.0,2 
NDBC,ioos:station:NOAA.NDBC:FWYF1:1,2017-01-22T23:00:00Z,25.5910,-80.0970,0.0,23.7,2 
NDBC,ioos:station:NOAA.NDBC:FWYF1:1,2017-01-23T01:00:00Z,25.5910,-80.0970,0.0,23.6,2 
NDBC,ioos:station:NOAA.NDBC:FWYF1:1,2017-01-23T02:00:00Z,25.5910,-80.0970,0.0,23.7,2 
NDBC,ioos:station:NOAA.NDBC:FWYF1:1,2017-01-23T13:00:00Z,25.5910,-80.0970,0.0,23.4,2 
NDBC,ioos:station:NOAA.NDBC:FWYF1:1,2017-01-23T15:00:00Z,25.5910,-80.0970,0.0,23.4,2 
NDBC,ioos:station:NOAA.NDBC:FWYF1:1,2017-01-23T16:00:00Z,25.5910,-80.0970,0.0,23.3,2 
NDBC,ioos:station:NOAA.NDBC:FWYF1:1,2017-01-23T17:00:00Z,25.5910,-80.0970,0.0,23.3,2 
NDBC,ioos:station:NOAA.NDBC:FWYF1:1,2017-01-23T18:00:00Z,25.5910,-80.0970,0.0,23.3,2 
NDBC,ioos:station:NOAA.NDBC:FWYF1:1,2017-01-23T19:00:00Z,25.5910,-80.0970,0.0,23.4,2 
NDBC,ioos:station:NOAA.NDBC:FWYF1:1,2017-01-23T20:00:00Z,25.5910,-80.0970,0.0,23.3,2 
NDBC,ioos:station:NOAA.NDBC:FWYF1:1,2017-01-23T21:00:00Z,25.5910,-80.0970,0.0,23.3,2 
NDBC,ioos:station:NOAA.NDBC:FWYF1:1,2017-01-23T23:00:00Z,25.5910,-80.0970,0.0,23.3,2 
NDBC,ioos:station:NOAA.NDBC:FWYF1:1,2017-01-24T01:00:00Z,25.5910,-80.0970,0.0,23.2,2 
NDBC,ioos:station:NOAA.NDBC:FWYF1:1,2017-01-24T05:00:00Z,25.5910,-80.0970,0.0,22.7,2 
NDBC,ioos:station:NOAA.NDBC:FWYF1:1,2017-01-24T11:00:00Z,25.5910,-80.0970,0.0,22.5,2 
NDBC,ioos:station:NOAA.NDBC:FWYF1:1,2017-01-24T12:00:00Z,25.5910,-80.0970,0.0,22.6,2 
NDBC,ioos:station:NOAA.NDBC:FWYF1:1,2017-01-24T15:00:00Z,25.5910,-80.0970,0.0,22.5,2 
NDBC,ioos:station:NOAA.NDBC:FWYF1:1,2017-01-24T16:00:00Z,25.5910,-80.0970,0.0,22.1,2 
NDBC,ioos:station:NOAA.NDBC:FWYF1:1,2017-01-24T17:00:00Z,25.5910,-80.0970,0.0,22.6,2 
NDBC,ioos:station:NOAA.NDBC:FWYF1:1,2017-01-24T18:00:00Z,25.5910,-80.0970,0.0,23.0,2 
NDBC,ioos:station:NOAA.NDBC:FWYF1:1,2017-01-24T19:00:00Z,25.5910,-80.0970,0.0,23.0,2 
NDBC,ioos:station:NOAA.NDBC:FWYF1:1,2017-01-24T20:00:00Z,25.5910,-80.0970,0.0,23.1,2 
NDBC,ioos:station:NOAA.NDBC:FWYF1:1,2017-01-24T21:00:00Z,25.5910,-80.0970,0.0,23.0,2 
NDBC,ioos:station:NOAA.NDBC:FWYF1:1,2017-01-24T22:00:00Z,25.5910,-80.0970,0.0,23.0,2 
NDBC,ioos:station:NOAA.NDBC:FWYF1:1,2017-01-24T23:00:00Z,25.5910,-80.0970,0.0,22.9,2 
NDBC,ioos:station:NOAA.NDBC:FWYF1:1,2017-01-25T00:00:00Z,25.5910,-80.0970,0.0,22.9,2 
NDBC,ioos:station:NOAA.NDBC:FWYF1:1,2017-01-25T01:00:00Z,25.5910,-80.0970,0.0,22.8,2 
NDBC,ioos:station:NOAA.NDBC:FWYF1:1,2017-01-25T02:00:00Z,25.5910,-80.0970,0.0,22.5,2 
NDBC,ioos:station:NOAA.NDBC:FWYF1:1,2017-01-25T03:00:00Z,25.5910,-80.0970,0.0,22.5,2 
NDBC,ioos:station:NOAA.NDBC:FWYF1:1,2017-01-25T04:00:00Z,25.5910,-80.0970,0.0,22.5,2 
NDBC,ioos:station:NOAA.NDBC:FWYF1:1,2017-01-25T05:00:00Z,25.5910,-80.0970,0.0,22.4,2 
NDBC,ioos:station:NOAA.NDBC:FWYF1:1,2017-01-25T06:00:00Z,25.5910,-80.0970,0.0,22.4,2 
NDBC,ioos:station:NOAA.NDBC:FWYF1:1,2017-01-25T07:00:00Z,25.5910,-80.0970,0.0,22.3,2 
NDBC,ioos:station:NOAA.NDBC:FWYF1:1,2017-01-25T08:00:00Z,25.5910,-80.0970,0.0,22.3,2 
NDBC,ioos:station:NOAA.NDBC:FWYF1:1,2017-01-25T09:00:00Z,25.5910,-80.0970,0.0,22.3,2 
NDBC,ioos:station:NOAA.NDBC:FWYF1:1,2017-01-25T10:00:00Z,25.5910,-80.0970,0.0,22.5,2 
NDBC,ioos:station:NOAA.NDBC:FWYF1:1,2017-01-25T11:00:00Z,25.5910,-80.0970,0.0,22.5,2 
NDBC,ioos:station:NOAA.NDBC:FWYF1:1,2017-01-25T12:00:00Z,25.5910,-80.0970,0.0,22.6,2 
NDBC,ioos:station:NOAA.NDBC:FWYF1:1,2017-01-25T13:00:00Z,25.5910,-80.0970,0.0,22.6,2 
NDBC,ioos:station:NOAA.NDBC:FWYF1:1,2017-01-25T14:00:00Z,25.5910,-80.0970,0.0,22.7,2 
NDBC,ioos:station:NOAA.NDBC:FWYF1:1,2017-01-25T15:00:00Z,25.5910,-80.0970,0.0,22.8,2 
NDBC,ioos:station:NOAA.NDBC:FWYF1:1,2017-01-25T16:00:00Z,25.5910,-80.0970,0.0,23.0,2 
NDBC,ioos:station:NOAA.NDBC:FWYF1:1,2017-01-25T17:00:00Z,25.5910,-80.0970,0.0,23.1,2 
NDBC,ioos:station:NOAA.NDBC:FWYF1:1,2017-01-25T18:00:00Z,25.5910,-80.0970,0.0,23.0,2 
NDBC,ioos:station:NOAA.NDBC:FWYF1:1,2017-01-25T19:00:00Z,25.5910,-80.0970,0.0,23.1,2 
NDBC,ioos:station:NOAA.NDBC:FWYF1:1,2017-01-25T20:00:00Z,25.5910,-80.0970,0.0,23.2,2 
NDBC,ioos:station:NOAA.NDBC:FWYF1:1,2017-01-25T21:00:00Z,25.5910,-80.0970,0.0,23.4,2 
NDBC,ioos:station:NOAA.NDBC:FWYF1:1,2017-01-25T22:00:00Z,25.5910,-80.0970,0.0,23.4,2 
NDBC,ioos:station:NOAA.NDBC:FWYF1:1,2017-01-25T23:00:00Z,25.5910,-80.0970,0.0,23.4,2 
NDBC,ioos:station:NOAA.NDBC:FWYF1:1,2017-01-26T00:00:00Z,25.5910,-80.0970,0.0,23.3,2 
NDBC,ioos:station:NOAA.NDBC:FWYF1:1,2017-01-26T01:00:00Z,25.5910,-80.0970,0.0,23.2,2 
NDBC,ioos:station:NOAA.NDBC:FWYF1:1,2017-01-26T02:00:00Z,25.5910,-80.0970,0.0,23.2,2 
NDBC,ioos:station:NOAA.NDBC:FWYF1:1,2017-01-26T03:00:00Z,25.5910,-80.0970,0.0,23.2,2 
NDBC,ioos:station:NOAA.NDBC:FWYF1:1,2017-01-26T04:00:00Z,25.5910,-80.0970,0.0,23.2,2 
NDBC,ioos:station:NOAA.NDBC:FWYF1:1,2017-01-26T05:00:00Z,25.5910,-80.0970,0.0,23.2,2 
NDBC,ioos:station:NOAA.NDBC:FWYF1:1,2017-01-26T06:00:00Z,25.5910,-80.0970,0.0,23.1,2 
NDBC,ioos:station:NOAA.NDBC:FWYF1:1,2017-01-26T07:00:00Z,25.5910,-80.0970,0.0,23.0,2 
NDBC,ioos:station:NOAA.NDBC:FWYF1:1,2017-01-26T08:00:00Z,25.5910,-80.0970,0.0,23.0,2 
NDBC,ioos:station:NOAA.NDBC:FWYF1:1,2017-01-26T09:00:00Z,25.5910,-80.0970,0.0,23.1,2 
NDBC,ioos:station:NOAA.NDBC:FWYF1:1,2017-01-26T10:00:00Z,25.5910,-80.0970,0.0,23.2,2 
NDBC,ioos:station:NOAA.NDBC:FWYF1:1,2017-01-26T11:00:00Z,25.5910,-80.0970,0.0,23.4,2 
NDBC,ioos:station:NOAA.NDBC:FWYF1:1,2017-01-26T12:00:00Z,25.5910,-80.0970,0.0,23.3,2 
NDBC,ioos:station:NOAA.NDBC:FWYF1:1,2017-01-26T13:00:00Z,25.5910,-80.0970,0.0,23.3,2 
NDBC,ioos:station:NOAA.NDBC:FWYF1:1,2017-01-26T14:00:00Z,25.5910,-80.0970,0.0,23.2,2 
NDBC,ioos:station:NOAA.NDBC:FWYF1:1,2017-01-26T15:00:00Z,25.5910,-80.0970,0.0,23.3,2 
NDBC,ioos:station:NOAA.NDBC:FWYF1:1,2017-01-26T16:00:00Z,25.5910,-80.0970,0.0,23.4,2 
NDBC,ioos:station:NOAA.NDBC:FWYF1:1,2017-01-26T17:00:00Z,25.5910,-80.0970,0.0,23.5,2 
NDBC,ioos:station:NOAA.NDBC:FWYF1:1,2017-01-26T18:00:00Z,25.5910,-80.0970,0.0,23.6,2 
NDBC,ioos:station:NOAA.NDBC:FWYF1:1,2017-01-26T23:00:00Z,25.5910,-80.0970,0.0,23.5,2 
NDBC,ioos:station:NOAA.NDBC:FWYF1:1,2017-01-27T01:00:00Z,25.5910,-80.0970,0.0,23.5,2 
NDBC,ioos:station:NOAA.NDBC:FWYF1:1,2017-01-27T02:00:00Z,25.5910,-80.0970,0.0,23.2,2 
NDBC,ioos:station:NOAA.NDBC:FWYF1:1,2017-01-27T15:00:00Z,25.5910,-80.0970,0.0,23.3,2 
NDBC,ioos:station:NOAA.NDBC:FWYF1:1,2017-01-27T16:00:00Z,25.5910,-80.0970,0.0,23.2,2 
NDBC,ioos:station:NOAA.NDBC:FWYF1:1,2017-01-27T23:00:00Z,25.5910,-80.0970,0.0,22.8,2 
NDBC,ioos:station:NOAA.NDBC:FWYF1:1,2017-01-28T01:00:00Z,25.5910,-80.0970,0.0,23.4,2 
NDBC,ioos:station:NOAA.NDBC:FWYF1:1,2017-01-28T11:00:00Z,25.5910,-80.0970,0.0,23.0,2 
NDBC,ioos:station:NOAA.NDBC:FWYF1:1,2017-01-28T12:00:00Z,25.5910,-80.0970,0.0,23.1,2 
NDBC,ioos:station:NOAA.NDBC:FWYF1:1,2017-01-28T17:00:00Z,25.5910,-80.0970,0.0,23.0,2 
NDBC,ioos:station:NOAA.NDBC:FWYF1:1,2017-01-28T18:00:00Z,25.5910,-80.0970,0.0,23.0,2 
NDBC,ioos:station:NOAA.NDBC:FWYF1:1,2017-01-28T19:00:00Z,25.5910,-80.0970,0.0,23.0,2 
NDBC,ioos:station:NOAA.NDBC:FWYF1:1,2017-01-28T20:00:00Z,25.5910,-80.0970,0.0,23.3,2 
NDBC,ioos:station:NOAA.NDBC:FWYF1:1,2017-01-28T21:00:00Z,25.5910,-80.0970,0.0,23.3,2 
NDBC,ioos:station:NOAA.NDBC:FWYF1:1,2017-01-28T23:00:00Z,25.5910,-80.0970,0.0,23.5,2 
NDBC,ioos:station:NOAA.NDBC:FWYF1:1,2017-01-29T01:00:00Z,25.5910,-80.0970,0.0,23.4,2 
NDBC,ioos:station:NOAA.NDBC:FWYF1:1,2017-01-29T07:00:00Z,25.5910,-80.0970,0.0,22.7,2 
NDBC,ioos:station:NOAA.NDBC:FWYF1:1,2017-01-29T14:00:00Z,25.5910,-80.0970,0.0,22.9,2 
NDBC,ioos:station:NOAA.NDBC:FWYF1:1,2017-01-29T15:00:00Z,25.5910,-80.0970,0.0,23.0,2 
NDBC,ioos:station:NOAA.NDBC:FWYF1:1,2017-01-29T16:00:00Z,25.5910,-80.0970,0.0,23.1,2 
NDBC,ioos:station:NOAA.NDBC:FWYF1:1,2017-01-29T17:00:00Z,25.5910,-80.0970,0.0,23.1,2 
NDBC,ioos:station:NOAA.NDBC:FWYF1:1,2017-01-29T18:00:00Z,25.5910,-80.0970,0.0,22.7,2 
NDBC,ioos:station:NOAA.NDBC:FWYF1:1,2017-01-29T19:00:00Z,25.5910,-80.0970,0.0,22.6,2 
NDBC,ioos:station:NOAA.NDBC:FWYF1:1,2017-01-29T20:00:00Z,25.5910,-80.0970,0.0,22.1,2 
NDBC,ioos:station:NOAA.NDBC:FWYF1:1,2017-01-29T21:00:00Z,25.5910,-80.0970,0.0,23.5,2 
NDBC,ioos:station:NOAA.NDBC:FWYF1:1,2017-01-29T23:00:00Z,25.5910,-80.0970,0.0,24.2,2 
NDBC,ioos:station:NOAA.NDBC:FWYF1:1,2017-01-30T01:00:00Z,25.5910,-80.0970,0.0,23.8,2 
NDBC,ioos:station:NOAA.NDBC:FWYF1:1,2017-01-30T12:00:00Z,25.5910,-80.0970,0.0,23.5,2 
NDBC,ioos:station:NOAA.NDBC:FWYF1:1,2017-01-30T14:00:00Z,25.5910,-80.0970,0.0,23.4,2 
NDBC,ioos:station:NOAA.NDBC:FWYF1:1,2017-01-30T15:00:00Z,25.5910,-80.0970,0.0,23.5,2 
NDBC,ioos:station:NOAA.NDBC:FWYF1:1,2017-01-30T17:00:00Z,25.5910,-80.0970,0.0,23.7,2 
NDBC,ioos:station:NOAA.NDBC:FWYF1:1,2017-01-30T18:00:00Z,25.5910,-80.0970,0.0,23.7,2 
NDBC,ioos:station:NOAA.NDBC:FWYF1:1,2017-01-30T19:00:00Z,25.5910,-80.0970,0.0,23.7,2 
NDBC,ioos:station:NOAA.NDBC:FWYF1:1,2017-01-30T20:00:00Z,25.5910,-80.0970,0.0,23.8,2 